Regional Weather Roundup
Issued by NWS New Orleans/Baton Rouge, LA

Home | Current Version | Previous Version | Text Only | Print | Product List | Glossary On
Versions: 1 2 3 4 5 6 7 8 9 10 11 12 13 14 15 16 17 18 19 20 21 22 23 24 25 26 27 28
000
ASUS44 KLIX 281711
RWRLIX
NEW ORLEANS REGIONAL WEATHER ROUNDUP
NATIONAL WEATHER SERVICE NEW ORLEANS LA
1200 PM CDT WED SEP 28 2016

NOTE: "FAIR" INDICATES FEW OR NO CLOUDS BELOW 12,000 FEET WITH NO
      SIGNIFICANT WEATHER AND/OR OBSTRUCTIONS TO VISIBILITY.
      SKY/WX - SKY CONDITION AND SIGNIFICANT WEATHER.
      TMP - AIR TEMPERATURE.     DP    - DEWPOINT TEMPERATURE.
      RH  - RELATIVE HUMIDITY.   PRES  - PRESSURE.
      HI  - HEAT INDEX.          WCI   - WIND CHILL INDEX.

*  THESE STATIONS ARE NOT NWS OR FAA STATIONS AND ARE NOT UNDER
   NWS QUALITY CONTROL.

LAZ038-040-048-061>063-065>067-069-281800-
SOUTHEAST LOUISIANA

CITY           SKY/WX    TMP DP  RH WIND       PRES   REMARKS
N.O. AUDUBON   NOT AVBL
N.O. INTL ARPT MOSUNNY   89  64  43 N6        30.02F
N.O. LAKEFRONT MOSUNNY   85  62  46 N7        30.03S
N.O. DOWNTOWN*   N/A     86  66  51 NW6       30.03S
RESERVE*         N/A     86  59  39 CALM      30.03S
SLIDELL        SUNNY     85  62  46 NE5       30.01F
BATON ROUGE    SUNNY     83  59  44 VRB3      30.03F
BOOTHVILLE     SUNNY     85  72  65 N7        30.01S
BELLE CHASSE   PTSUNNY   87  66  49 CALM      30.01F
BOGALUSA*        N/A     85  57  38 CALM      30.03F
GALLIANO*      SUNNY     87  56  33 CALM      30.02S
NEW ROADS*       N/A     81  60  49 MISG      30.04F
GONZALES*        N/A     83  60  45 CALM      30.03S
HAMMOND*       MOSUNNY   86  54  32 CALM      30.02F
HOUMA*         MOSUNNY   84  72  65 CALM      30.02F
PORT FOURCHON* PTSUNNY   84  72  65 CALM      30.02S

$$

MSZ070-080>082-281800-
SOUTHERN MISSISSIPPI

CITY           SKY/WX    TMP DP  RH WIND       PRES   REMARKS
MCCOMB         SUNNY     81  57  43 N6        30.03F
GULFPORT       SUNNY     86  61  42 N6        29.99F
BILOXI         SUNNY     86  65  50 N6        29.99F
PASCAGOULA     MOSUNNY   86  66  51 VRB3      29.99F
STENNIS ARPT*  SUNNY     84  55  37 N5        30.01F

$$

COASTAL OBSERVATIONS
LAKE AND NEARSHORE STATIONS

STATION/POSITION TIME  TEMP    WIND        PRES    WAVE
                       AIR SEA DIR/SP/G            HT/PER
                 (UTC) (F)     (DEG/KT/KT) (MB)    (FT/S)
PASCAGOULA       1600   85     330/  3/  5 1015.7
WAVELAND YACHT   1600   80 83   10/  3/  4 1016.6
GRAND ISLE       1600   85 87   10/  5/  6 1016.7
SOUTHWEST PASS   1600          300/  3/  5   N/A
NEW CANAL        1600   80 85   30/  3/  4 1015.9
SHELL BEACH      1600   80 86  350/  5/  7 1016.6

OFFSHORE STATIONS

STATION/POSITION TIME  TEMP    WIND        PRES    WAVE
                       AIR SEA DIR/SP/G            HT/PER
                 (UTC) (F)     (DEG/KT/KT) (MB)    (FT/S)
64 S DAUPHIN ISL 1600   82 85  310/  6/  6 1015.5

$$





USA.gov is the U.S. government's official web portal to all federal, state and local government web resources and services.